Regional Weather Roundup
Issued by NWS Portland, ME

Home | Current Version | Previous Version | Text Only | Print | Product List | Glossary On
Versions: 1 2 3 4 5 6 7 8 9 10 11 12 13 14 15 16 17 18 19 20 21 22 23 24 25 26 27 28 29 30 31 32 33 34 35 36 37 38 39 40 41 42 43 44 45 46 47 48 49 50
000
ASUS41 KGYX 230310
RWRGYX
WEATHER ROUNDUP FOR MAINE AND NEW HAMPSHIRE
NATIONAL WEATHER SERVICE GRAY ME
1000 PM EST WED NOV 22 2017

MEZ002-005-006-010-012-015-018-020-021-024-026-027-029-230400-
MAINE

CITY           SKY/WX    TMP DP  RH WIND       PRES   REMARKS
PORTLAND       MOCLDY    37  30  75 NW10G18   29.84R
SANFORD          N/A     35  30  82 W6        29.85R
BAR HARBOR     LGT RAIN  38  36  92 N15G22    29.70F
WISCASSET      CLOUDY    39  36  89 VRB5      29.80F
ROCKLAND       LGT RAIN  37  35  92 NW12G20   29.74F
FRYEBURG       MOCLDY    35  30  82 W3        29.84S
LEWISTONAUBURN PTCLDY    36  30  79 NW14      29.81F
AUGUSTA        CLOUDY    37  33  85 NW9       29.78F
WATERVILLE     CLOUDY    36  33  89 NW8       29.74F
BANGOR         LGT RAIN  37  35  92 NW12      29.74F
GREENVILLE     NOT AVBL
MILLINOCKET    MIX PCPN  35  34  96 NW9       29.75F
HOULTON        LGT SNOW  33  33 100 N8        29.69F FOG
PRESQUE ISLE   CLOUDY    33  32  96 NW14      29.75S
FRENCHVILLE    CLOUDY    30  27  88 NW12G26   29.75S
CARIBOU        CLOUDY    34  31  88 NW13      29.75R
$$

NHZ002-005-008-009-011-012-014-230400-
NEW HAMPSHIRE

CITY           SKY/WX    TMP DP  RH WIND       PRES   REMARKS
PORTSMOUTH     PTCLDY    37  27  68 NW14      29.85R
ROCHESTER      CLEAR     36  28  73 NW15G26   29.84R
NASHUA         CLOUDY    38  27  64 NW21G31   29.91S
MANCHESTER     PTCLDY    38  24  57 NW17G29   29.89S
CONCORD        CLOUDY    36  26  67 NW15G25   29.89F
LACONIA        CLOUDY    35  25  66 NW13G20   29.88S
PLYMOUTH       CLOUDY    34  26  71 NW16G24   29.91S
BERLIN         CLOUDY    32  27  81 N12       29.87S
WHITEFIELD     CLOUDY    32  28  85 NW7       29.91S
JAFFREY        CLOUDY    36  26  67 NW12G22   29.89F
KEENE          CLOUDY    36  24  62 NW10G23   29.95R
LEBANON        CLOUDY    35  23  61 N9G17     29.97R
MT WASHINGTON  SNOWSHWR  10  10 100 NW58G66     N/A  VSB 1/16WCI -18
$$

VTZ005-007-008-230400-
VERMONT

CITY           SKY/WX    TMP DP  RH WIND       PRES   REMARKS
MONTPELIER     CLOUDY    28  23  81 NW17G25   30.00S WCI  16
BURLINGTON     CLOUDY    31  20  63 NW17      30.07R WCI  19
$$

MAZ007-012-024-CTZ003-RIZ002-NYZ038-NYZ072-230400-
SOUTHERN NEW ENGLAND AND NY

CITY           SKY/WX    TMP DP  RH WIND       PRES   REMARKS
BOSTON         PTCLDY    39  30  70 NW16G24   29.89R
WORCESTER      CLOUDY    35  26  69 NW12G22   29.89R
NANTUCKET      PTCLDY    41  36  82 NW26G39   29.85R
PROVIDENCE     PTCLDY    40  29  64 NW8G20    29.93R
HARTFORD       MOCLDY    38  25  59 N9G20     29.98R
ALBANY         CLOUDY    35  20  54 NW18G30   30.07S
NEW YORK CITY  CLEAR     39  24  55 NW18      30.06R
$$

ANZ081-ANZ082-ANZ150-NHZ014-MEZ023>029-230400-
COASTAL MARINE OBSERVATIONS

STATION/POSITION TIME  TEMP    WIND        PRES    WAVE
                       AIR SEA DIR/SP/G            HT/PER
                 (UTC) (F)     (DEG/KT/KT) (MB)    (FT/S)
MOUNT DESERT ROC 0300   42     320/ 35/ 40 1003.8F
MATINICUS ROCK   0200   42     340/ 31/ 36 1005.2R
ISLE OF SHOALS   0200   39     310/ 28/ 30 1009.7R
JEFFREYS LEDGE   0236      49                N/A     7/ 5
GEORGES BANK BUO 0150   56 54               998.2   13/ 8
$$

.............KEY..............
   WCI - WIND CHILL
   TC  - TEMPERATURE IN CELSIUS
   VSB - VISIBILITY IN MILES
   HX  - HEAT INDEX
   FAIR- INDICATES FEW OR NO CLOUDS BELOW 12,000 FT, WITH NO
         SIGNIFICANT WEATHER AND/OR OBSTRUCTIONS TO VISIBILITY.






USA.gov is the U.S. government's official web portal to all federal, state and local government web resources and services.